Location: Great Falls
(47.5000°N, 111.3000°W)
Time: 07:00:43
(UTC-06:00)

ISS - Pass Details

Date: 25 April 2025
Orbit: 416 x 420 km, 51.6° (Epoch: 15 May)

Event Time Altitude Azimuth Distance (km) Brightness Sun altitude
Exits shadow 05:02:29 20° 248° (WSW) 1,023 -2.4 -12.0°
Maximum altitude 05:04:39 85° 334° (NNW) 423 -3.8 -11.7°
Drops below altitude 10° 05:08:02 10° 65° (ENE) 1,498 0.5 -11.3°
Sets 05:10:08 0° 66° (ENE) 2,364 2.0 -11.0°
